When you browse on this site, cookies collect data to enhance your experience and personalize the content and advertising you see.
Visit our Privacy Policy to learn more. By continuing to use the site, you agree to this use of cookies and data.
  • Em Portugal
  • Lista de países
  • Para 7 dias
  • Temperatura da água
  • Mapas de satélite
  • Mapa do tempo
  • Widgets de tempo
  • user-avatar
    Iniciar Sessão

    Previsão horária em Wieloleka

    Hoje, 19 Junho, Quarta-feira

    Tempo Temperatura Precipitação Vento Pressão Humidade
    00:00 +18°C° 0 mm 3 m/s 752 mmHg 83%
    01:00 +18°C° 0 mm 3 m/s 752 mmHg 84%
    02:00 +18°C° 0 mm 3 m/s 752 mmHg 86%
    03:00 +17°C° 0 mm 3 m/s 751 mmHg 88%
    04:00 +17°C° 0 mm 2 m/s 751 mmHg 90%
    05:00 +19°C° 0 mm 2 m/s 751 mmHg 86%
    06:00 +20°C° 0 mm 3 m/s 751 mmHg 81%
    07:00 +22°C° 0 mm 3 m/s 751 mmHg 75%
    08:00 +25°C° 0 mm 3 m/s 751 mmHg 70%
    09:00 +26°C° 0 mm 3 m/s 750 mmHg 65%
    10:00 +27°C° 0 mm 2 m/s 750 mmHg 60%
    11:00 +28°C° 0 mm 2 m/s 750 mmHg 55%
    12:00 +29°C° 0 mm 2 m/s 749 mmHg 51%
    13:00 +30°C° 0 mm 2 m/s 749 mmHg 47%
    14:00 +30°C° 0 mm 2 m/s 749 mmHg 48%
    15:00 +30°C° 0 mm 1 m/s 748 mmHg 49%
    16:00 +30°C° 0 mm 1 m/s 748 mmHg 50%
    17:00 +29°C° 0 mm 1 m/s 748 mmHg 53%
    18:00 +28°C° 0 mm 1 m/s 748 mmHg 57%
    19:00 +25°C° 0 mm 0 m/s 747 mmHg 60%
    20:00 +26°C° 0 mm 1 m/s 748 mmHg 64%
    21:00 +24°C° 0 mm 1 m/s 748 mmHg 67%
    22:00 +23°C° 0 mm 2 m/s 748 mmHg 70%
    23:00 +22°C° 0 mm 1 m/s 748 mmHg 70%

    Amanhã, 20 Junho, Quinta-feira

    Tempo Temperatura Precipitação Vento Pressão Humidade
    00:00 +22°C° 0 mm 1 m/s 748 mmHg 70%
    01:00 +22°C° 0 mm 1 m/s 748 mmHg 70%
    02:00 +21°C° 0 mm 1 m/s 748 mmHg 72%
    03:00 +21°C° 0 mm 1 m/s 748 mmHg 73%
    04:00 +21°C° 0 mm 1 m/s 747 mmHg 75%
    05:00 +22°C° 0 mm 1 m/s 748 mmHg 73%
    06:00 +24°C° 0 mm 1 m/s 748 mmHg 72%
    07:00 +25°C° 0 mm 2 m/s 748 mmHg 70%
    08:00 +26°C° 0 mm 2 m/s 748 mmHg 65%
    09:00 +28°C° 0 mm 2 m/s 748 mmHg 60%
    10:00 +29°C° 0 mm 2 m/s 748 mmHg 56%
    11:00 +30°C° 0 mm 2 m/s 748 mmHg 51%
    12:00 +31°C° 0 mm 2 m/s 748 mmHg 47%
    13:00 +31°C° 0 mm 2 m/s 748 mmHg 43%
    14:00 +31°C° 0 mm 2 m/s 747 mmHg 44%
    15:00 +31°C° 0 mm 2 m/s 747 mmHg 46%
    16:00 +31°C° 0 mm 2 m/s 747 mmHg 47%
    17:00 +29°C° 0.2 mm 3 m/s 747 mmHg 56%
    18:00 +27°C° 0.2 mm 3 m/s 748 mmHg 65%
    19:00 +23°C° 0.2 mm 4 m/s 748 mmHg 74%
    20:00 +22°C° 0.8 mm 3 m/s 748 mmHg 79%
    21:00 +21°C° 0.8 mm 2 m/s 749 mmHg 83%
    22:00 +21°C° 0.8 mm 1 m/s 749 mmHg 87%
    23:00 +21°C° 0.1 mm 1 m/s 749 mmHg 88%

    Depois de amanhã, 21 Junho, Sexta-feira

    Tempo Temperatura Precipitação Vento Pressão Humidade
    00:00 +20°C° 0.1 mm 1 m/s 749 mmHg 89%
    01:00 +19°C° 0.1 mm 2 m/s 749 mmHg 90%
    02:00 +19°C° 0.2 mm 2 m/s 749 mmHg 91%
    03:00 +20°C° 0.2 mm 1 m/s 750 mmHg 91%
    04:00 +20°C° 0.2 mm 1 m/s 750 mmHg 91%
    05:00 +20°C° 0.1 mm 1 m/s 750 mmHg 89%
    06:00 +20°C° 0.1 mm 2 m/s 750 mmHg 86%
    07:00 +21°C° 0.1 mm 2 m/s 751 mmHg 84%
    08:00 +23°C° 0.1 mm 2 m/s 751 mmHg 81%
    09:00 +22°C° 0.1 mm 3 m/s 751 mmHg 79%
    10:00 +24°C° 0.1 mm 3 m/s 751 mmHg 77%
    11:00 +24°C° 0 mm 3 m/s 751 mmHg 73%
    12:00 +25°C° 0 mm 3 m/s 751 mmHg 69%
    13:00 +25°C° 0 mm 2 m/s 751 mmHg 64%
    14:00 +26°C° 0.1 mm 2 m/s 751 mmHg 63%
    15:00 +26°C° 0.1 mm 2 m/s 751 mmHg 62%
    16:00 +27°C° 0.1 mm 3 m/s 752 mmHg 61%
    17:00 +25°C° 0.1 mm 3 m/s 752 mmHg 68%
    18:00 +24°C° 0.1 mm 2 m/s 752 mmHg 74%
    19:00 +23°C° 0.1 mm 2 m/s 752 mmHg 81%
    20:00 +21°C° 0 mm 2 m/s 752 mmHg 84%
    21:00 +20°C° 0 mm 2 m/s 753 mmHg 87%
    22:00 +19°C° 0 mm 2 m/s 753 mmHg 90%
    23:00 +18°C° 0 mm 3 m/s 754 mmHg 92%

    22 Junho, Sábado

    Tempo Temperatura Precipitação Vento Pressão Humidade
    00:00 +18°C° 0 mm 3 m/s 754 mmHg 94%
    01:00 +17°C° 0 mm 3 m/s 754 mmHg 96%
    02:00 +17°C° 0 mm 3 m/s 754 mmHg 94%
    03:00 +16°C° 0 mm 3 m/s 754 mmHg 92%
    04:00 +14°C° 0 mm 3 m/s 755 mmHg 90%
    05:00 +16°C° 0 mm 3 m/s 755 mmHg 86%
    06:00 +18°C° 0 mm 4 m/s 755 mmHg 82%
    07:00 +19°C° 0 mm 4 m/s 756 mmHg 77%
    08:00 +20°C° 0 mm 4 m/s 756 mmHg 71%
    09:00 +21°C° 0 mm 4 m/s 756 mmHg 65%
    10:00 +22°C° 0 mm 4 m/s 756 mmHg 59%
    11:00 +23°C° 0 mm 5 m/s 756 mmHg 58%
    12:00 +23°C° 0 mm 5 m/s 756 mmHg 56%
    13:00 +25°C° 0 mm 5 m/s 755 mmHg 55%
    14:00 +25°C° 0 mm 5 m/s 755 mmHg 57%
    15:00 +23°C° 0 mm 5 m/s 755 mmHg 59%
    16:00 +23°C° 0 mm 6 m/s 755 mmHg 60%
    17:00 +22°C° 0 mm 5 m/s 755 mmHg 66%
    18:00 +21°C° 0 mm 5 m/s 755 mmHg 71%
    19:00 +21°C° 0 mm 5 m/s 755 mmHg 76%
    20:00 +19°C° 0 mm 5 m/s 755 mmHg 76%
    21:00 +17°C° 0 mm 5 m/s 756 mmHg 75%
    22:00 +16°C° 0 mm 6 m/s 756 mmHg 75%
    23:00 +15°C° 0 mm 5 m/s 756 mmHg 77%

    23 Junho, Domingo

    Tempo Temperatura Precipitação Vento Pressão Humidade
    00:00 +14°C° 0 mm 5 m/s 756 mmHg 79%
    01:00 +14°C° 0 mm 5 m/s 756 mmHg 81%
    02:00 +15°C° 0.1 mm 5 m/s 753 mmHg 73%
    03:00 +15°C° 0.1 mm 5 m/s 753 mmHg 74%
    04:00 +14°C° 0.1 mm 4 m/s 752 mmHg 74%
    05:00 +14°C° 1.2 mm 5 m/s 752 mmHg 79%
    06:00 +14°C° 1.2 mm 5 m/s 752 mmHg 85%
    07:00 +13°C° 1.2 mm 5 m/s 753 mmHg 90%
    08:00 +14°C° 2.1 mm 5 m/s 753 mmHg 91%
    09:00 +14°C° 2.1 mm 6 m/s 753 mmHg 91%
    10:00 +14°C° 2.1 mm 6 m/s 753 mmHg 92%
    11:00 +14°C° 3.7 mm 6 m/s 753 mmHg 92%
    12:00 +14°C° 3.7 mm 7 m/s 753 mmHg 92%
    13:00 +14°C° 3.7 mm 7 m/s 753 mmHg 92%
    14:00 +14°C° 1.4 mm 7 m/s 753 mmHg 91%
    15:00 +14°C° 1.4 mm 7 m/s 753 mmHg 90%
    16:00 +12°C° 1.4 mm 7 m/s 754 mmHg 89%
    17:00 +13°C° 0.7 mm 6 m/s 754 mmHg 90%
    18:00 +13°C° 0.7 mm 4 m/s 754 mmHg 91%
    19:00 +13°C° 0.7 mm 3 m/s 754 mmHg 92%
    20:00 +13°C° 0.1 mm 3 m/s 755 mmHg 91%
    21:00 +13°C° 0.1 mm 3 m/s 755 mmHg 90%
    22:00 +13°C° 0.1 mm 3 m/s 756 mmHg 90%
    23:00 +13°C° 0 mm 3 m/s 756 mmHg 89%

    24 Junho, Segunda-feira

    Tempo Temperatura Precipitação Vento Pressão Humidade
    00:00 +12°C° 0 mm 3 m/s 756 mmHg 89%
    01:00 +12°C° 0 mm 3 m/s 756 mmHg 89%
    02:00 +11°C° 0 mm 3 m/s 756 mmHg 88%
    03:00 +11°C° 0 mm 3 m/s 757 mmHg 88%
    04:00 +10°C° 0 mm 3 m/s 757 mmHg 88%
    05:00 +12°C° 0 mm 3 m/s 757 mmHg 83%
    06:00 +13°C° 0 mm 3 m/s 758 mmHg 79%
    07:00 +16°C° 0 mm 3 m/s 758 mmHg 74%
    08:00 +17°C° 0 mm 3 m/s 758 mmHg 67%
    09:00 +19°C° 0 mm 3 m/s 758 mmHg 60%
    10:00 +21°C° 0 mm 3 m/s 758 mmHg 53%
    11:00 +21°C° 0 mm 3 m/s 758 mmHg 50%
    12:00 +22°C° 0 mm 3 m/s 758 mmHg 48%
    13:00 +24°C° 0 mm 3 m/s 758 mmHg 46%
    14:00 +24°C° 0 mm 3 m/s 758 mmHg 47%
    15:00 +24°C° 0 mm 3 m/s 758 mmHg 49%
    16:00 +24°C° 0 mm 3 m/s 758 mmHg 50%
    17:00 +23°C° 0 mm 2 m/s 759 mmHg 56%
    18:00 +21°C° 0 mm 2 m/s 759 mmHg 62%
    19:00 +21°C° 0 mm 1 m/s 759 mmHg 68%
    20:00 +19°C° 0 mm 2 m/s 759 mmHg 70%
    21:00 +17°C° 0 mm 2 m/s 760 mmHg 72%
    22:00 +16°C° 0 mm 2 m/s 760 mmHg 74%
    23:00 +15°C° 0 mm 2 m/s 760 mmHg 74%
    Mostrar mais